Location: Unspecified
(50.7693°N, 0.0000°E)
Time: 11:36:24
(UTC+00:00)

SR - Pass Details

Date: 25 June 2019
Orbit: 580 x 876 km, 66.7° (Epoch: 21 July)

Event Time Altitude Azimuth Distance (km) Brightness Sun altitude
Rises 02:22:14 0° 182° (S) 2,788 - -9.7°
Exits shadow 02:23:58 - 175° (S) 2,148 ? -9.5°
Reaches altitude 10° 02:24:42 10° 170° (S) 1,892 ? -9.5°
Maximum altitude 02:28:12 26° 113° (ESE) 1,179 ? -9.2°
Drops below altitude 10° 02:31:47 10° 57° (ENE) 1,947 ? -8.9°
Sets 02:34:21 0° 45° (NE) 2,887 ? -8.6°
